Lid_Strength_Index
3 3 4 4 4 4 4 4 4 4 4 3 3 4 5 3 2 1 -0 0 -0 0 1 1 0 -1 0 4 5 0 -2 -2 -1 1 3 4 6 6 8 7 7 8 7 6 5 6 6
3 3 4 4 4 4 4 5 4 4 4 3 3 4 4 4 2 1 0 0 0 1 1 0 -0 -1 2 7 1 -0 -0 -0 1 2 3 3 5 4 6 7 8 7 7 6 6 7 6
3 4 4 4 4 4 5 5 4 5 4 4 3 4 4 4 3 1 0 -0 2 1 1 0 -0 -0 3 4 -0 -1 -1 0 1 1 4 3 3 5 5 7 5 6 10 8 8 7 8
2 3 4 4 4 4 4 5 5 4 4 4 4 4 4 4 3 2 0 -0 1 2 1 0 -1 0 5 0 -1 -0 -0 1 1 2 2 2 2 4 5 5 7 9 8 13 8 8 8
2 3 4 4 4 4 5 5 5 4 4 4 4 4 4 4 4 2 1 -0 1 2 1 0 1 2 6 -1 2 0 -0 3 2 3 2 2 3 6 6 9 11 10 13 11 11 7 8
2 3 4 5 4 4 5 5 5 5 4 4 4 4 4 4 4 2 1 1 1 2 1 1 1 5 3 5 2 1 0 2 3 5 5 5 7 9 8 10 15 13 12 11 12 10 9
2 3 4 5 5 5 5 5 5 5 5 4 4 4 5 5 4 2 1 2 5 6 5 7 6 5 4 2 1 2 1 3 3 6 10 8 11 13 10 8 8 10 11 12 10 9 10
2 3 4 5 5 5 5 5 5 5 5 5 5 5 5 5 3 3 3 5 6 6 9 6 5 4 3 2 6 4 1 6 7 10 8 10 13 9 8 8 9 9 11 11 10 8 9
2 3 4 5 5 5 5 5 5 5 5 5 5 5 5 5 4 4 5 5 3 4 8 7 5 5 4 3 6 6 4 6 9 10 11 12 11 8 9 10 10 10 11 11 11 10 9
2 3 4 5 5 5 6 6 6 5 5 5 5 5 5 5 6 6 6 3 3 4 11 10 8 5 4 4 7 3 3 5 8 11 10 10 9 10 10 10 9 13 9 9 11 12 14
2 3 5 5 5 6 6 6 6 6 6 5 5 5 5 6 7 7 5 2 3 5 18 9 8 2 4 7 6 7 3 5 10 10 10 12 11 11 11 10 8 10 8 9 10 11 12
3 4 5 5 6 6 7 6 6 6 6 6 6 5 5 6 5 6 3 2 4 12 19 12 8 8 8 7 7 6 6 4 5 9 9 10 7 9 9 8 8 8 9 10 10 12 17
3 4 5 6 6 7 7 6 6 6 6 6 5 5 6 6 8 5 4 5 13 16 11 13 12 9 9 10 9 8 10 10 11 15 15 12 11 9 8 10 8 9 11 17 19 18 17
3 4 5 6 6 7 7 7 6 6 6 6 6 5 6 6 6 5 6 10 17 13 13 9 10 10 12 10 10 10 10 12 9 11 14 16 17 11 8 10 11 11 11 15 19 19 16
4 5 6 6 7 7 7 7 6 6 6 6 6 6 7 7 6 6 10 14 14 12 10 11 11 13 13 11 10 10 11 11 10 10 14 15 15 9 9 8 9 12 13 10 14 14 15
4 5 6 6 7 7 7 7 7 6 6 7 7 8 8 6 6 9 12 13 11 10 9 9 13 11 13 12 12 12 11 9 11 9 8 11 16 11 10 8 8 10 9 14 14 19 19
4 5 6 7 7 7 7 7 7 7 7 7 8 10 8 6 7 11 14 13 10 8 8 10 11 12 12 13 11 12 12 10 9 9 8 9 12 14 10 12 12 11 12 12 11 13 16
4 5 6 7 7 7 7 7 7 7 7 9 9 12 9 7 12 13 12 12 9 8 7 8 8 9 10 11 11 11 12 10 7 7 11 9 11 16 14 9 8 10 11 11 15 16 13
4 6 6 7 7 7 7 8 7 7 7 9 11 11 9 9 13 12 11 11 9 8 8 9 9 8 9 10 12 11 10 8 7 8 9 9 12 17 16 12 10 12 10 10 11 12 15
4 6 7 7 7 7 8 8 8 8 8 10 12 14 12 11 11 12 12 12 10 7 8 8 8 8 9 10 9 11 10 8 7 7 7 8 11 13 16 14 11 13 12 11 12 16 14
4 6 7 7 7 8 8 8 8 9 8 11 13 14 14 14 13 12 12 12 12 11 8 7 9 9 9 11 11 11 9 9 8 7 8 8 13 12 12 12 12 12 12 12 14 12 15
5 6 7 7 7 8 8 8 9 9 9 13 15 15 15 15 14 13 13 12 12 10 9 10 10 9 9 10 10 11 9 9 10 8 8 9 13 12 13 11 11 13 11 11 11 11 11
5 6 7 7 8 8 8 8 9 9 11 13 14 14 12 16 14 13 14 14 13 11 8 8 8 8 9 9 8 7 7 7 8 9 9 10 11 13 15 12 12 14 12 11 11 10 10
6 6 7 7 8 8 8 8 9 10 11 12 13 13 14 16 14 14 15 14 13 12 11 9 7 8 7 5 6 7 7 8 7 9 8 10 11 12 14 14 18 12 10 10 11 10 9
6 6 7 7 8 8 8 8 9 9 10 12 14 14 14 16 15 16 16 15 14 12 11 10 7 7 6 7 9 10 10 10 10 9 9 9 10 13 15 15 12 11 11 12 12 12 9
6 6 7 7 8 8 8 8 9 9 10 12 13 13 13 15 16 15 15 15 14 13 12 10 7 8 7 7 9 13 14 12 13 12 9 10 9 11 13 17 17 12 9 8 9 13 8
5 6 7 7 8 8 8 8 8 9 10 11 12 12 13 15 14 15 15 15 14 14 13 11 11 8 7 9 12 13 13 10 13 14 13 12 11 14 13 15 12 9 9 8 13 12 7
6 6 7 7 8 8 8 8 8 9 10 11 12 11 11 14 14 13 13 14 14 14 14 13 11 10 9 11 12 11 12 10 11 10 12 12 13 14 13 15 17 8 9 11 8 7 6
6 6 7 7 8 8 8 8 8 8 9 11 12 10 10 11 13 11 11 11 12 12 12 13 13 12 10 11 10 11 11 11 11 13 10 13 10 11 11 11 7 7 6 6 6 6 6